| time (UTC) | temp F | wind direction | speed MPH | gust MPH | rain 1hr in | rain 24hr in | rain mn in | humidity % | barometer mb |
| 20260903061929 | 83 | 340 | 5.0 | 11.0 | 0.00 | 0.00 | 0.00 | 49 | 1013.3 |
| 20260903060428 | 82 | 6 | 3.0 | 11.0 | 0.00 | 0.00 | 0.00 | 51 | 1013.3 |
| 20260903054929 | 81 | 347 | 2.0 | 13.0 | 0.00 | 0.00 | 0.00 | 51 | 1013.3 |
| 20260903050429 | 80 | 353 | 5.0 | 15.0 | 0.00 | 0.00 | 0.00 | 52 | 1013.5 |
| 20260903044934 | 81 | 320 | 9.0 | 16.0 | 0.00 | 0.00 | 0.00 | 50 | 1013.6 |
| 20260903043428 | 81 | 20 | 3.0 | 11.0 | 0.00 | 0.00 | 0.00 | 47 | 1013.5 |
| 20260903041929 | 82 | 0 | 5.0 | 9.0 | 0.00 | 0.00 | 0.00 | 45 | 1013.3 |
| 20260903040428 | 82 | 338 | 4.0 | 7.0 | 0.00 | 0.00 | 0.00 | 44 | 1013.3 |
| 20260903034929 | 82 | 7 | 3.0 | 10.0 | 0.00 | 0.00 | 0.00 | 43 | 1013.3 |
| 20260903033435 | 83 | 357 | 0.0 | 6.0 | 0.00 | 0.00 | 0.00 | 42 | 1013.1 |
| 20260903031929 | 83 | 35 | 2.0 | 12.0 | 0.00 | 0.00 | 0.00 | 41 | 1013.1 |
| 20260903024929 | 83 | 24 | 3.0 | 11.0 | 0.00 | 0.00 | 0.00 | 40 | 1013.0 |
| 20260903023429 | 83 | 34 | 1.0 | 5.0 | 0.00 | 0.00 | 0.00 | 41 | 1013.1 |
| 20260903021931 | 83 | 131 | 2.0 | 7.0 | 0.00 | 0.00 | 0.00 | 41 | 1013.1 |
| 20260903020431 | 83 | 4 | 2.0 | 7.0 | 0.00 | 0.00 | 0.00 | 40 | 1013.1 |
| 20260903014929 | 83 | 3 | 3.0 | 10.0 | 0.00 | 0.00 | 0.00 | 40 | 1013.0 |
| 20260903013429 | 83 | 37 | 6.0 | 11.0 | 0.00 | 0.00 | 0.00 | 39 | 1013.1 |
| 20260903011929 | 83 | 21 | 2.0 | 9.0 | 0.00 | 0.00 | 0.00 | 40 | 1013.2 |
| 20260903010428 | 82 | 357 | 2.0 | 6.0 | 0.00 | 0.00 | 0.00 | 41 | 1013.2 |
| 20260903003431 | 82 | 0 | 1.0 | 5.0 | 0.00 | 0.00 | 0.00 | 40 | 1013.1 |
| 20260903001929 | 83 | 80 | 2.0 | 5.0 | 0.00 | 0.00 | 0.00 | 39 | 1013.0 |
| 20260903000429 | 83 | 0 | 2.0 | 7.0 | 0.00 | 0.00 | 0.00 | 40 | 1013.0 |
| 20260902234931 | 83 | 93 | 1.0 | 4.0 | 0.00 | 0.00 | 0.00 | 40 | 1013.1 |
| 20260902233434 | 83 | 343 | 0.0 | 6.0 | 0.00 | 0.00 | 0.00 | 39 | 1013.2 |
| 20260902231930 | 83 | 0 | 2.0 | 10.0 | 0.00 | 0.00 | 0.00 | 39 | 1013.3 |
| 20260902230429 | 84 | 351 | 3.0 | 5.0 | 0.00 | 0.00 | 0.00 | 39 | 1013.3 |
| 20260902224931 | 84 | 1 | 1.0 | 5.0 | 0.00 | 0.00 | 0.00 | 38 | 1013.4 |
| 20260902223428 | 84 | 18 | 2.0 | 5.0 | 0.00 | 0.00 | 0.00 | 38 | 1013.5 |
| 20260902221929 | 84 | 14 | 1.0 | 5.0 | 0.00 | 0.00 | 0.00 | 38 | 1013.7 |
| 20260902220428 | 85 | 338 | 2.0 | 5.0 | 0.00 | 0.00 | 0.00 | 38 | 1013.6 |
| 20260902214929 | 84 | 10 | 1.0 | 3.0 | 0.00 | 0.00 | 0.00 | 38 | 1013.8 |
| 20260902213429 | 84 | 0 | 1.0 | 4.0 | 0.00 | 0.00 | 0.00 | 38 | 1013.9 |
| 20260902211929 | 84 | 353 | 2.0 | 5.0 | 0.00 | 0.00 | 0.00 | 38 | 1014.0 |
| 20260902210428 | 85 | 0 | 0.0 | 3.0 | 0.00 | 0.00 | 0.00 | 37 | 1014.1 |
| 20260902204934 | 85 | 321 | 0.0 | 0.0 | 0.00 | 0.00 | 0.00 | 36 | 1014.1 |
| 20260902193431 | 87 | 96 | 0.0 | 7.0 | 0.00 | 0.00 | 0.00 | 34 | 1014.2 |
| 20260902191929 | 87 | 358 | 2.0 | 9.0 | 0.00 | 0.00 | 0.00 | 34 | 1014.2 |
| 20260902190432 | 87 | 27 | 3.0 | 11.0 | 0.00 | 0.00 | 0.00 | 34 | 1014.1 |
| 20260902183431 | 87 | 351 | 4.0 | 9.0 | 0.00 | 0.00 | 0.00 | 34 | 1014.1 |
| 20260902180429 | 87 | 24 | 2.0 | 7.0 | 0.00 | 0.00 | 0.00 | 34 | 1014.0 |
| 20260902173431 | 88 | 65 | 2.0 | 11.0 | 0.00 | 0.00 | 0.00 | 34 | 1013.8 |
| 20260902171925 | 88 | 47 | 3.0 | 7.0 | 0.00 | 0.00 | 0.00 | 34 | 1013.7 |
| 20260902170424 | 88 | 17 | 2.0 | 9.0 | 0.00 | 0.00 | 0.00 | 33 | 1013.7 |
| 20260902164923 | 89 | 27 | 0.0 | 6.0 | 0.00 | 0.00 | 0.00 | 33 | 1013.7 |
| 20260902163422 | 90 | 23 | 3.0 | 10.0 | 0.00 | 0.00 | 0.00 | 33 | 1013.7 |
| 20260902161922 | 90 | 320 | 2.0 | 10.0 | 0.00 | 0.00 | 0.00 | 32 | 1013.8 |
| 20260902160420 | 91 | 0 | 5.0 | 12.0 | 0.00 | 0.00 | 0.00 | 32 | 1013.9 |
| 20260902154918 | 91 | 320 | 4.0 | 13.0 | 0.00 | 0.00 | 0.00 | 32 | 1013.8 |
| 20260902153418 | 91 | 24 | 4.0 | 14.0 | 0.00 | 0.00 | 0.00 | 31 | 1013.8 |
| 20260902151917 | 92 | 300 | 3.0 | 12.0 | 0.00 | 0.00 | 0.00 | 31 | 1013.8 |
| 20260902150416 | 92 | 47 | 2.0 | 11.0 | 0.00 | 0.00 | 0.00 | 30 | 1013.8 |
| 20260902144912 | 92 | 7 | 4.0 | 14.0 | 0.00 | 0.00 | 0.00 | 30 | 1013.9 |
| 20260902143410 | 92 | 11 | 5.0 | 13.0 | 0.00 | 0.00 | 0.00 | 30 | 1014.1 |
| 20260902141909 | 93 | 25 | 7.0 | 13.0 | 0.00 | 0.00 | 0.00 | 29 | 1014.1 |
| 20260902140408 | 93 | 334 | 5.0 | 16.0 | 0.00 | 0.00 | 0.00 | 29 | 1014.2 |
| 20260902134909 | 93 | 1 | 6.0 | 16.0 | 0.00 | 0.00 | 0.00 | 28 | 1014.2 |
| 20260902131904 | 94 | 343 | 6.0 | 16.0 | 0.00 | 0.00 | 0.00 | 28 | 1014.4 |
| 20260902130405 | 95 | 1 | 6.0 | 16.0 | 0.00 | 0.00 | 0.00 | 27 | 1014.5 |
| 20260902123403 | 95 | 16 | 7.0 | 18.0 | 0.00 | 0.00 | 0.00 | 27 | 1014.6 |
| 20260902121902 | 95 | 341 | 9.0 | 18.0 | 0.00 | 0.00 | 0.00 | 27 | 1014.6 |
| 20260902120401 | 94 | 54 | 5.0 | 19.0 | 0.00 | 0.00 | 0.00 | 27 | 1014.8 |
| 20260902114909 | 95 | 8 | 4.0 | 14.0 | 0.00 | 0.00 | 0.00 | 27 | 1014.8 |
| 20260902110401 | 94 | 8 | 5.0 | 15.0 | 0.00 | 0.00 | 0.00 | 25 | 1015.2 |
| 20260902104900 | 94 | 286 | 3.0 | 13.0 | 0.00 | 0.00 | 0.00 | 24 | 1015.2 |
| 20260902101901 | 94 | 21 | 7.0 | 15.0 | 0.00 | 0.00 | 0.00 | 25 | 1015.4 |
| 20260902100403 | 94 | 59 | 4.0 | 18.0 | 0.00 | 0.00 | 0.00 | 25 | 1015.5 |
| 20260902093401 | 93 | 1 | 4.0 | 21.0 | 0.00 | 0.00 | 0.00 | 27 | 1015.5 |
| 20260902091903 | 93 | 18 | 6.0 | 16.0 | 0.00 | 0.00 | 0.00 | 28 | 1015.5 |
| 20260902084901 | 92 | 103 | 5.0 | 18.0 | 0.00 | 0.00 | 0.00 | 28 | 1015.5 |
| 20260902083402 | 92 | 345 | 6.0 | 14.0 | 0.00 | 0.00 | 0.00 | 29 | 1015.6 |
| 20260902081901 | 91 | 41 | 6.0 | 15.0 | 0.00 | 0.00 | 0.00 | 30 | 1015.5 |
| 20260902080400 | 91 | 313 | 7.0 | 14.0 | 0.00 | 0.00 | 0.00 | 31 | 1015.5 |
| 20260902074901 | 90 | 14 | 5.0 | 12.0 | 0.00 | 0.00 | 0.00 | 32 | 1015.6 |
| 20260902073401 | 89 | 1 | 6.0 | 14.0 | 0.00 | 0.00 | 0.00 | 36 | 1015.5 |
| 20260902071900 | 88 | 340 | 5.0 | 13.0 | 0.00 | 0.00 | 0.00 | 36 | 1015.5 |
| 20260902070401 | 87 | 1 | 6.0 | 14.0 | 0.00 | 0.00 | 0.00 | 37 | 1015.4 |
| 20260902064906 | 87 | 1 | 5.0 | 10.0 | 0.00 | 0.00 | 0.00 | 37 | 1015.3 |
| 20260902063401 | 86 | 48 | 6.0 | 13.0 | 0.00 | 0.00 | 0.00 | 38 | 1015.2 |